Starlink 1854

decayed
NORAD ID: 47141 Int'l Des: 2020-088 Owner: SPXS Country: US Constellation: starlink
LEOCIRCULAR
Gruppe

Über Starlink 1854

Beschreibung wird geladen...

Höhenverlauf

Altitude vs Time

uPlot chart will show altitude changes over time

Zweizeiliger Elementsatz

1 47141U 20088V 25040.08024512 .09720436 12422-4 53835-3 0 9991
2 47141 53.0268 221.9579 0005850 270.6400 190.2177 16.42122864233455
Epoch: 9. Feb. 2025 • Age: 6522 hours

Aktueller Status

Position data unavailable
Startdatum 25. Nov. 2020
Alter 4.9 years
Verglühungsdatum 9. Feb. 2025
Typ internet

Technische Details

Klassifizierung Payload
Masse 260.00 kg
Trockenmasse 248.00 kg
Gesamtmasse 260.00 kg
Länge 0.20 m
Durchmesser 2.80 m
Spannweite 9.00 m
Form Box + pan
Hersteller SPXS
Bus-Typ Starlink
Phasenstatus Reentered
Besitzer/Staat SPXS/US

Große Konstellationen

Loading constellations...